GFSNW_700_temp_336.txt.gz
Temp
2 2 2 2 2 1 1 1 0 1 0 -0 -1 -1 -2 -2 -2 -3 -4 -4 -5 -5 -7 -8 -8 -7 -8 -9 -10 -12 -12 -13 -14 -13 -13 -13 -14 -14 -15 -16 -16 -16 -17 -16
1 1 1 1 1 2 1 1 0 0 -1 -2 -2 -2 -2 -3 -3 -4 -4 -5 -6 -6 -7 -8 -8 -9 -8 -9 -11 -12 -13 -14 -14 -13 -14 -14 -14 -14 -15 -16 -17 -17 -18 -16
0 0 0 -0 -1 -0 -0 -1 -1 -1 -1 -2 -2 -3 -2 -3 -4 -4 -4 -5 -6 -7 -7 -8 -9 -8 -9 -10 -11 -12 -13 -14 -13 -14 -11 -13 -14 -14 -15 -16 -17 -16 -16 -15
-0 -0 -0 -1 -1 -2 -2 -1 -2 -1 -2 -2 -3 -3 -3 -3 -4 -5 -5 -6 -5 -7 -8 -8 -9 -9 -9 -11 -11 -12 -14 -14 -14 -13 -13 -14 -14 -14 -15 -16 -15 -17 -15 -16
-1 -1 -1 -1 -2 -3 -2 -2 -2 -2 -3 -3 -3 -3 -3 -3 -5 -6 -6 -6 -6 -7 -7 -7 -9 -10 -10 -11 -12 -13 -13 -14 -14 -14 -14 -14 -15 -14 -14 -15 -16 -16 -15 -15
-1 -1 -1 -2 -3 -3 -3 -2 -2 -3 -4 -4 -5 -3 -3 -4 -6 -6 -6 -6 -7 -7 -6 -8 -9 -10 -10 -11 -12 -13 -13 -14 -15 -15 -14 -15 -16 -12 -12 -13 -14 -14 -15 -14
-3 -3 -3 -3 -3 -4 -3 -3 -3 -3 -3 -4 -4 -3 -5 -5 -5 -7 -6 -7 -7 -7 -8 -9 -9 -10 -11 -11 -11 -13 -13 -14 -14 -14 -15 -19 -12 -13 -13 -14 -14 -15 -15 -15
-3 -4 -3 -3 -3 -3 -3 -3 -3 -3 -3 -4 -5 -6 -6 -7 -7 -7 -7 -7 -7 -8 -9 -9 -10 -10 -11 -10 -11 -11 -14 -14 -14 -15 -16 -14 -13 -13 -13 -14 -15 -15 -15 -16
-3 -4 -3 -3 -3 -3 -3 -3 -4 -4 -4 -5 -5 -6 -7 -7 -7 -7 -7 -7 -7 -8 -9 -9 -11 -11 -11 -11 -11 -11 -13 -14 -14 -15 -16 -18 -14 -14 -15 -15 -17 -15 -16 -16
-3 -3 -3 -4 -4 -4 -4 -4 -4 -6 -6 -5 -6 -7 -7 -7 -7 -8 -7 -7 -8 -8 -9 -10 -11 -12 -12 -12 -12 -12 -14 -15 -15 -15 -15 -15 -14 -15 -15 -18 -15 -16 -17 -17
-4 -4 -4 -4 -4 -5 -5 -5 -5 -7 -7 -5 -6 -7 -8 -8 -8 -8 -7 -8 -9 -9 -10 -11 -11 -12 -12 -13 -12 -12 -12 -14 -15 -16 -16 -16 -14 -14 -16 -15 -16 -17 -18 -18
-4 -5 -7 -7 -7 -7 -7 -6 -6 -6 -8 -6 -6 -7 -7 -9 -8 -8 -8 -8 -8 -8 -9 -9 -10 -11 -12 -12 -13 -13 -14 -14 -14 -15 -14 -14 -14 -15 -16 -16 -17 -18 -19 -19
-5 -5 -6 -5 -6 -5 -7 -7 -7 -7 -7 -7 -6 -5 -6 -7 -8 -8 -8 -8 -8 -9 -9 -9 -10 -11 -12 -12 -12 -13 -14 -14 -15 -15 -15 -15 -16 -16 -16 -17 -18 -19 -20 -21
-4 -4 -4 -4 -4 -4 -5 -7 -7 -7 -7 -7 -6 -5 -6 -7 -8 -8 -8 -8 -8 -9 -10 -11 -11 -12 -13 -13 -13 -13 -14 -14 -15 -15 -15 -16 -16 -17 -18 -19 -20 -21 -21 -21
-5 -5 -5 -5 -5 -5 -6 -6 -6 -8 -8 -7 -7 -6 -6 -7 -7 -8 -8 -9 -9 -9 -11 -12 -12 -13 -13 -13 -14 -14 -14 -15 -15 -15 -16 -17 -18 -19 -19 -20 -21 -21 -22 -22
-6 -6 -6 -5 -5 -6 -6 -6 -5 -6 -9 -8 -8 -6 -6 -6 -7 -8 -8 -9 -10 -11 -12 -13 -13 -14 -14 -14 -15 -15 -15 -16 -16 -17 -17 -18 -19 -19 -20 -21 -22 -22 -23 -23
-8 -7 -7 -7 -6 -7 -7 -6 -5 -6 -8 -8 -9 -8 -6 -6 -8 -8 -9 -10 -11 -12 -14 -14 -14 -15 -15 -15 -15 -16 -16 -17 -17 -18 -19 -20 -20 -20 -21 -21 -22 -23 -23 -23
-9 -8 -8 -8 -8 -8 -7 -8 -9 -8 -9 -8 -9 -8 -8 -8 -9 -10 -11 -11 -12 -13 -14 -15 -15 -16 -17 -17 -17 -17 -17 -18 -19 -19 -19 -20 -20 -21 -21 -22 -23 -23 -24 -24
-11 -10 -10 -9 -9 -9 -9 -10 -9 -8 -8 -9 -9 -8 -10 -9 -11 -11 -12 -13 -15 -15 -15 -17 -17 -18 -18 -17 -17 -18 -19 -19 -19 -20 -20 -21 -21 -22 -23 -23 -24 -24 -25 -25
-12 -13 -12 -11 -10 -9 -10 -10 -10 -10 -9 -9 -9 -9 -11 -12 -12 -13 -15 -15 -15 -16 -17 -18 -19 -18 -18 -18 -18 -19 -19 -20 -20 -20 -21 -22 -23 -23 -24 -24 -25 -25 -26 -26
-14 -14 -13 -12 -12 -11 -11 -11 -11 -10 -11 -10 -9 -11 -12 -13 -14 -15 -16 -16 -17 -17 -19 -18 -19 -19 -18 -19 -19 -19 -20 -20 -21 -22 -23 -23 -24 -24 -25 -26 -27 -27 -27 -27
-14 -13 -13 -12 -12 -12 -12 -11 -12 -11 -11 -10 -9 -11 -13 -14 -15 -17 -17 -17 -17 -19 -20 -19 -19 -19 -19 -19 -19 -20 -21 -22 -23 -23 -24 -25 -26 -26 -27 -28 -28 -28 -28 -28
-14 -14 -13 -12 -13 -13 -13 -11 -9 -10 -9 -9 -10 -11 -14 -16 -17 -17 -17 -18 -19 -20 -20 -20 -19 -19 -19 -20 -21 -21 -22 -23 -24 -25 -26 -27 -27 -28 -28 -28 -28 -29 -29 -29
-14 -14 -14 -13 -12 -12 -10 -10 -10 -11 -12 -11 -12 -14 -15 -16 -17 -17 -18 -19 -20 -21 -20 -19 -19 -20 -21 -21 -21 -22 -23 -24 -25 -26 -26 -27 -28 -28 -29 -29 -29 -29 -30 -30
-14 -14 -13 -13 -12 -12 -11 -10 -12 -12 -12 -13 -14 -16 -16 -17 -17 -18 -19 -20 -20 -20 -19 -19 -20 -21 -21 -21 -22 -22 -23 -24 -25 -26 -27 -28 -28 -29 -29 -29 -30 -30 -30 -30
-14 -14 -13 -12 -13 -13 -12 -12 -13 -14 -15 -15 -16 -16 -17 -18 -18 -18 -18 -19 -18 -19 -19 -20 -20 -20 -21 -21 -22 -23 -23 -24 -25 -26 -27 -28 -28 -29 -30 -30 -30 -30 -31 -31
-14 -14 -14 -14 -14 -14 -13 -14 -14 -16 -16 -17 -17 -17 -17 -18 -18 -18 -17 -18 -19 -19 -19 -20 -20 -21 -21 -22 -22 -23 -24 -25 -26 -27 -28 -28 -29 -29 -30 -30 -30 -31 -31 -31

GFSNW_700_temp_339.txt.gz
Temp
1 1 1 1 1 1 1 0 -0 0 -0 -1 -1 -1 -1 -0 -1 -2 -3 -3 -3 -4 -5 -6 -7 -5 -6 -7 -8 -10 -11 -12 -14 -11 -12 -13 -14 -14 -14 -15 -17 -17 -18 -16
-0 -0 -0 -0 0 0 -1 -1 -1 -0 -1 -1 -0 -1 -1 -2 -2 -2 -3 -4 -4 -5 -5 -6 -7 -7 -7 -8 -9 -10 -11 -13 -13 -13 -13 -12 -13 -13 -13 -14 -15 -16 -18 -15
-1 -1 -1 -1 -1 -1 -1 -2 -3 -2 -2 -1 -2 -2 -3 -2 -3 -3 -4 -5 -5 -5 -6 -6 -7 -7 -8 -8 -9 -11 -13 -13 -12 -12 -10 -12 -13 -13 -14 -15 -16 -16 -16 -15
-1 -1 -1 -1 -2 -2 -2 -2 -3 -2 -3 -3 -3 -4 -4 -3 -3 -4 -4 -5 -4 -6 -7 -7 -7 -7 -8 -9 -9 -11 -13 -13 -13 -13 -13 -14 -14 -13 -14 -15 -14 -16 -12 -15
-2 -2 -2 -2 -2 -3 -3 -3 -3 -3 -4 -4 -4 -4 -3 -2 -3 -4 -5 -5 -5 -6 -7 -6 -7 -8 -8 -9 -10 -11 -12 -13 -13 -14 -13 -14 -14 -13 -14 -14 -14 -15 -14 -14
-3 -3 -3 -3 -3 -4 -4 -4 -4 -4 -4 -3 -4 -3 -3 -3 -4 -4 -4 -5 -6 -7 -6 -7 -7 -8 -9 -9 -10 -10 -11 -12 -13 -14 -14 -15 -15 -11 -11 -12 -11 -12 -14 -12
-3 -3 -3 -3 -4 -4 -4 -4 -4 -4 -4 -4 -4 -4 -4 -4 -4 -5 -5 -7 -7 -6 -7 -7 -8 -8 -9 -9 -10 -10 -11 -13 -14 -14 -14 -16 -11 -11 -12 -11 -12 -12 -13 -14
-2 -3 -3 -3 -4 -4 -4 -4 -4 -4 -4 -4 -5 -5 -5 -5 -5 -6 -6 -6 -7 -7 -8 -8 -9 -9 -9 -8 -9 -10 -11 -13 -14 -14 -15 -13 -13 -11 -11 -12 -12 -13 -14 -15
-3 -3 -3 -3 -3 -4 -4 -5 -5 -6 -6 -5 -5 -6 -6 -6 -7 -7 -7 -7 -8 -8 -8 -9 -10 -9 -8 -10 -10 -10 -10 -13 -14 -14 -16 -17 -12 -12 -13 -14 -15 -13 -14 -15
-2 -2 -3 -4 -4 -4 -4 -5 -6 -7 -7 -6 -7 -7 -7 -7 -7 -8 -8 -8 -8 -8 -8 -9 -10 -10 -10 -10 -10 -10 -11 -15 -14 -14 -14 -14 -13 -13 -13 -15 -13 -13 -14 -15
-4 -4 -3 -4 -4 -5 -6 -5 -6 -7 -7 -6 -7 -7 -7 -7 -8 -8 -8 -8 -9 -9 -9 -10 -9 -10 -10 -11 -10 -10 -10 -12 -14 -15 -15 -15 -12 -13 -14 -13 -13 -14 -15 -16
-5 -5 -5 -5 -5 -5 -7 -7 -7 -6 -7 -6 -6 -6 -5 -6 -7 -8 -8 -8 -8 -8 -8 -9 -9 -10 -11 -10 -12 -11 -12 -11 -11 -13 -11 -12 -12 -13 -14 -14 -15 -15 -16 -17
-5 -5 -5 -5 -6 -6 -7 -8 -8 -7 -7 -7 -6 -5 -5 -6 -7 -7 -8 -8 -8 -8 -8 -8 -9 -10 -10 -10 -10 -11 -12 -12 -13 -13 -13 -13 -13 -14 -14 -15 -15 -16 -17 -18
-7 -6 -6 -6 -6 -6 -6 -6 -7 -8 -7 -7 -6 -6 -5 -6 -6 -7 -7 -8 -8 -9 -9 -9 -10 -10 -11 -11 -11 -12 -12 -12 -13 -13 -13 -14 -14 -14 -15 -15 -17 -18 -19 -19
-8 -7 -7 -7 -7 -7 -7 -7 -7 -8 -9 -8 -7 -7 -6 -5 -6 -7 -8 -8 -9 -9 -10 -10 -10 -11 -12 -12 -12 -12 -13 -13 -14 -14 -14 -14 -15 -15 -16 -17 -18 -19 -20 -20
-9 -9 -8 -8 -8 -8 -9 -9 -7 -7 -8 -8 -8 -7 -7 -7 -6 -7 -7 -9 -9 -10 -10 -10 -11 -12 -13 -13 -13 -13 -13 -14 -15 -15 -15 -16 -16 -17 -18 -19 -20 -20 -20 -21
-11 -11 -11 -10 -10 -10 -10 -10 -8 -8 -10 -9 -9 -8 -8 -7 -7 -6 -7 -9 -11 -11 -12 -12 -12 -13 -14 -14 -14 -14 -15 -15 -16 -16 -17 -17 -18 -19 -19 -20 -20 -20 -21 -22
-12 -12 -11 -11 -11 -11 -11 -10 -10 -9 -10 -9 -10 -9 -9 -7 -7 -8 -9 -10 -11 -11 -12 -12 -14 -14 -15 -16 -15 -15 -16 -17 -17 -18 -18 -19 -19 -19 -20 -20 -21 -21 -22 -22
-14 -15 -14 -13 -12 -11 -10 -10 -11 -10 -11 -10 -10 -10 -9 -8 -8 -9 -11 -12 -13 -13 -13 -15 -16 -16 -16 -16 -16 -17 -17 -18 -18 -19 -19 -19 -20 -20 -21 -22 -22 -23 -23 -24
-14 -14 -14 -14 -12 -12 -12 -11 -11 -11 -11 -10 -10 -9 -10 -10 -10 -11 -13 -13 -14 -15 -15 -16 -17 -17 -17 -17 -17 -18 -18 -19 -19 -19 -20 -20 -21 -22 -22 -23 -24 -24 -25 -25
-15 -14 -14 -14 -14 -14 -13 -12 -12 -12 -12 -11 -10 -10 -10 -10 -12 -13 -15 -15 -16 -16 -17 -17 -18 -18 -17 -17 -18 -18 -19 -19 -20 -20 -21 -22 -22 -23 -24 -25 -25 -26 -26 -27
-15 -14 -14 -14 -14 -13 -13 -13 -12 -12 -11 -11 -10 -9 -11 -13 -14 -15 -16 -16 -17 -18 -19 -18 -18 -18 -18 -18 -18 -19 -19 -20 -21 -21 -22 -23 -24 -25 -26 -26 -27 -27 -28 -28
-15 -15 -15 -14 -14 -14 -14 -13 -12 -12 -12 -11 -11 -12 -14 -14 -16 -17 -17 -17 -18 -19 -19 -19 -18 -18 -18 -19 -20 -20 -20 -21 -21 -22 -23 -24 -25 -26 -27 -27 -27 -28 -28 -28
-15 -15 -15 -14 -13 -14 -13 -12 -12 -13 -13 -13 -13 -14 -15 -17 -17 -17 -18 -19 -19 -20 -20 -18 -18 -19 -19 -20 -20 -20 -21 -21 -22 -23 -24 -25 -26 -26 -27 -28 -28 -29 -29 -29
-15 -15 -14 -14 -13 -13 -13 -13 -13 -13 -14 -14 -14 -16 -17 -17 -17 -18 -18 -19 -19 -19 -18 -18 -19 -19 -19 -20 -20 -21 -21 -22 -23 -23 -24 -25 -26 -27 -28 -28 -29 -29 -30 -30
-15 -15 -14 -14 -14 -14 -14 -14 -14 -15 -16 -17 -17 -17 -17 -17 -18 -18 -18 -18 -18 -18 -18 -19 -19 -19 -20 -20 -21 -21 -22 -22 -23 -24 -25 -26 -27 -28 -28 -28 -29 -29 -30 -30
-16 -15 -15 -15 -14 -15 -15 -14 -15 -16 -17 -18 -18 -18 -17 -18 -18 -18 -18 -18 -18 -18 -19 -19 -19 -20 -20 -21 -21 -22 -22 -23 -24 -25 -25 -26 -27 -28 -28 -29 -29 -30 -30 -30

GFSNW_700_temp_342.txt.gz
Temp
-0 -0 -0 -0 -0 -0 -1 -1 -1 -1 -1 -2 -2 -1 -1 -1 -1 -1 -2 -2 -2 -3 -3 -4 -5 -5 -5 -5 -6 -8 -8 -11 -11 -10 -10 -11 -12 -13 -13 -14 -16 -15 -19 -15
-1 -1 -1 -1 -1 -1 -1 -1 -2 -2 -2 -2 -1 -2 -2 -2 -2 -2 -3 -3 -3 -3 -4 -6 -5 -6 -5 -6 -7 -9 -9 -11 -11 -12 -11 -12 -14 -12 -13 -14 -14 -15 -17 -13
-1 -1 -1 -2 -2 -2 -2 -2 -3 -2 -2 -2 -3 -3 -3 -3 -3 -3 -4 -4 -4 -4 -5 -5 -6 -6 -7 -7 -7 -10 -11 -12 -10 -10 -7 -9 -12 -11 -12 -13 -15 -14 -15 -13
-2 -2 -2 -2 -2 -3 -3 -3 -3 -3 -3 -2 -3 -4 -4 -4 -3 -3 -4 -4 -3 -4 -5 -6 -6 -6 -7 -7 -7 -11 -12 -12 -11 -9 -10 -12 -12 -13 -13 -14 -13 -15 -11 -14
-4 -4 -4 -3 -4 -4 -4 -4 -3 -3 -4 -4 -5 -5 -5 -4 -4 -4 -4 -4 -4 -5 -5 -5 -6 -7 -7 -7 -8 -9 -11 -12 -12 -11 -11 -12 -13 -13 -13 -13 -13 -15 -14 -14
-4 -4 -4 -3 -4 -4 -4 -4 -4 -4 -4 -4 -5 -5 -4 -4 -4 -4 -4 -4 -5 -6 -5 -6 -7 -7 -8 -8 -9 -9 -10 -11 -13 -13 -12 -13 -14 -10 -8 -9 -10 -11 -15 -8
-3 -4 -4 -4 -4 -4 -4 -4 -5 -5 -5 -5 -4 -5 -5 -5 -5 -5 -5 -6 -6 -5 -6 -7 -7 -7 -8 -8 -8 -9 -10 -11 -13 -13 -14 -15 -9 -10 -9 -9 -10 -10 -10 -10
-2 -2 -2 -4 -4 -4 -4 -4 -4 -5 -5 -4 -5 -5 -5 -6 -5 -6 -6 -6 -6 -7 -8 -8 -8 -8 -8 -7 -7 -9 -10 -11 -12 -13 -14 -11 -10 -10 -9 -10 -10 -10 -11 -11
-3 -3 -3 -3 -3 -5 -5 -5 -5 -6 -6 -3 -5 -6 -6 -6 -6 -7 -6 -6 -7 -8 -8 -8 -9 -9 -8 -8 -9 -8 -8 -12 -13 -13 -14 -14 -10 -10 -10 -11 -12 -10 -11 -12
-4 -4 -4 -4 -4 -5 -5 -6 -6 -6 -6 -3 -5 -6 -6 -7 -7 -7 -7 -8 -8 -8 -8 -9 -9 -9 -9 -9 -8 -8 -10 -14 -13 -14 -13 -12 -11 -11 -12 -14 -11 -11 -12 -13
-5 -5 -5 -5 -5 -5 -6 -6 -6 -6 -6 -4 -5 -5 -6 -6 -7 -7 -7 -8 -8 -8 -9 -9 -9 -9 -9 -9 -8 -8 -9 -10 -13 -14 -14 -13 -10 -12 -12 -11 -12 -12 -13 -13
-6 -6 -6 -6 -6 -6 -7 -7 -7 -7 -6 -6 -6 -5 -6 -7 -7 -7 -7 -8 -8 -8 -9 -9 -9 -9 -9 -9 -10 -9 -11 -9 -10 -11 -10 -9 -10 -11 -12 -12 -13 -13 -14 -14
-7 -6 -6 -7 -6 -7 -7 -7 -7 -8 -7 -7 -7 -5 -5 -5 -6 -7 -7 -7 -7 -8 -8 -8 -9 -9 -9 -10 -9 -9 -10 -10 -11 -12 -10 -11 -12 -12 -12 -13 -13 -14 -15 -15
-8 -8 -8 -7 -8 -8 -8 -8 -7 -8 -9 -8 -7 -6 -7 -7 -7 -7 -7 -7 -8 -8 -8 -9 -9 -9 -10 -10 -10 -10 -10 -10 -11 -11 -11 -12 -12 -13 -13 -14 -14 -15 -16 -17
-10 -10 -10 -10 -9 -10 -9 -9 -9 -8 -10 -10 -9 -8 -7 -7 -7 -8 -8 -8 -8 -8 -9 -9 -9 -9 -10 -10 -11 -10 -10 -11 -12 -13 -13 -13 -14 -14 -14 -15 -16 -16 -17 -18
-13 -12 -11 -11 -11 -11 -11 -12 -9 -9 -10 -11 -11 -9 -8 -8 -8 -8 -8 -8 -9 -9 -9 -9 -10 -9 -10 -11 -12 -11 -12 -12 -13 -13 -14 -14 -15 -15 -16 -16 -17 -18 -19 -19
-14 -14 -14 -13 -14 -13 -14 -13 -11 -11 -11 -10 -10 -10 -9 -9 -8 -8 -8 -9 -10 -10 -10 -10 -10 -11 -12 -12 -12 -11 -13 -14 -14 -15 -15 -16 -16 -17 -18 -18 -19 -19 -20 -20
-15 -14 -14 -14 -14 -14 -13 -11 -12 -13 -12 -12 -12 -11 -10 -10 -10 -10 -9 -9 -11 -11 -12 -11 -11 -12 -13 -14 -12 -13 -14 -15 -15 -16 -17 -17 -18 -18 -19 -19 -19 -20 -20 -21
-15 -15 -15 -14 -14 -14 -12 -12 -12 -13 -13 -13 -13 -12 -11 -10 -9 -10 -10 -11 -13 -13 -13 -13 -14 -14 -14 -12 -13 -15 -16 -16 -17 -17 -18 -18 -19 -19 -19 -20 -20 -21 -22 -23
-16 -16 -15 -15 -14 -14 -13 -13 -13 -13 -13 -12 -13 -13 -12 -11 -10 -11 -12 -13 -13 -13 -13 -14 -15 -14 -15 -15 -16 -17 -17 -18 -18 -18 -19 -19 -19 -20 -20 -21 -22 -23 -23 -24
-16 -16 -15 -15 -15 -15 -14 -14 -13 -13 -13 -12 -12 -13 -13 -13 -13 -13 -14 -14 -14 -15 -14 -16 -16 -15 -15 -16 -17 -17 -17 -18 -18 -19 -19 -19 -20 -21 -21 -22 -23 -24 -25 -26
-16 -16 -15 -15 -15 -15 -14 -14 -13 -13 -13 -12 -12 -12 -13 -13 -14 -15 -15 -16 -16 -16 -17 -18 -18 -17 -17 -17 -17 -18 -18 -19 -19 -19 -20 -20 -21 -22 -23 -24 -24 -25 -26 -26
-16 -16 -15 -15 -15 -14 -14 -14 -13 -12 -12 -12 -13 -13 -14 -14 -16 -16 -16 -17 -18 -19 -19 -19 -18 -18 -18 -18 -19 -19 -19 -19 -20 -20 -21 -21 -22 -23 -24 -25 -25 -26 -27 -27
-16 -15 -15 -15 -14 -14 -14 -14 -14 -14 -14 -14 -14 -14 -16 -17 -17 -17 -18 -18 -19 -20 -19 -18 -18 -18 -19 -19 -19 -19 -20 -20 -20 -21 -22 -22 -23 -24 -25 -25 -26 -27 -28 -28
-15 -15 -15 -15 -14 -14 -14 -14 -15 -15 -15 -15 -16 -17 -17 -17 -17 -18 -19 -19 -19 -19 -18 -18 -18 -19 -19 -19 -20 -20 -20 -21 -21 -22 -22 -23 -24 -25 -25 -26 -27 -28 -28 -29
-16 -15 -15 -15 -15 -15 -15 -15 -15 -15 -16 -17 -18 -17 -18 -18 -18 -19 -18 -19 -18 -18 -18 -18 -19 -19 -19 -20 -20 -20 -21 -21 -22 -22 -23 -24 -24 -25 -26 -27 -28 -28 -29 -29
-16 -16 -15 -15 -15 -15 -16 -16 -16 -17 -18 -19 -18 -18 -18 -18 -19 -18 -18 -18 -18 -18 -19 -19 -19 -19 -20 -20 -20 -21 -21 -22 -22 -23 -23 -24 -25 -26 -27 -27 -28 -29 -29 -30

GFSNW_700_temp_345.txt.gz
Temp
-1 -1 -1 -1 -1 -2 -2 -2 -2 -1 -2 -2 -2 -1 -1 -1 -2 -2 -3 -3 -3 -3 -3 -4 -5 -4 -3 -4 -4 -6 -7 -9 -10 -9 -9 -9 -10 -11 -11 -12 -14 -14 -18 -13
-2 -2 -2 -2 -2 -2 -2 -2 -2 -2 -2 -3 -2 -2 -3 -3 -3 -3 -3 -4 -4 -3 -4 -4 -4 -4 -4 -5 -6 -7 -7 -10 -10 -10 -11 -10 -12 -10 -11 -12 -12 -13 -16 -10
-2 -2 -2 -3 -3 -3 -3 -4 -4 -3 -3 -3 -3 -3 -4 -4 -4 -4 -4 -4 -4 -4 -4 -4 -5 -5 -5 -6 -7 -8 -9 -10 -8 -7 -6 -7 -10 -9 -10 -12 -14 -13 -14 -9
-3 -3 -3 -3 -5 -4 -4 -4 -4 -4 -4 -3 -4 -4 -5 -4 -4 -5 -5 -4 -4 -4 -5 -5 -5 -5 -6 -6 -7 -8 -10 -9 -9 -8 -9 -9 -9 -10 -11 -12 -11 -14 -7 -12
-3 -4 -4 -4 -5 -4 -4 -4 -4 -4 -4 -4 -5 -6 -4 -4 -4 -5 -5 -5 -4 -5 -5 -4 -5 -6 -6 -6 -7 -8 -9 -11 -11 -9 -9 -10 -10 -11 -12 -11 -12 -13 -11 -11
-3 -4 -4 -4 -4 -5 -4 -4 -4 -5 -5 -4 -5 -3 -3 -3 -5 -5 -4 -5 -5 -5 -3 -6 -6 -6 -7 -7 -7 -8 -9 -10 -12 -12 -11 -12 -14 -10 -9 -8 -8 -7 -12 -5
-3 -4 -3 -4 -4 -4 -5 -5 -5 -5 -5 -5 -4 -4 -5 -5 -5 -5 -5 -6 -6 -6 -6 -7 -7 -7 -8 -8 -8 -8 -9 -10 -12 -12 -13 -13 -8 -9 -8 -9 -8 -8 -8 -8
-3 -3 -3 -4 -4 -6 -5 -5 -5 -5 -5 -5 -6 -6 -5 -5 -5 -5 -6 -5 -6 -7 -8 -8 -8 -8 -8 -7 -7 -8 -8 -10 -12 -12 -13 -11 -8 -8 -7 -8 -7 -8 -9 -9
-4 -4 -4 -4 -4 -5 -7 -7 -6 -6 -6 -5 -6 -6 -6 -6 -6 -6 -5 -5 -6 -7 -8 -9 -9 -8 -7 -8 -8 -7 -7 -11 -12 -12 -13 -13 -7 -8 -9 -10 -10 -8 -9 -10
-5 -5 -5 -5 -5 -5 -6 -7 -7 -6 -6 -6 -6 -6 -6 -6 -6 -6 -6 -6 -6 -8 -8 -8 -9 -9 -8 -8 -8 -8 -10 -12 -13 -13 -12 -11 -10 -10 -11 -12 -9 -10 -10 -11
-6 -6 -6 -6 -6 -6 -7 -5 -7 -7 -6 -6 -7 -7 -7 -6 -6 -6 -7 -7 -7 -8 -8 -9 -9 -9 -8 -9 -8 -8 -8 -10 -12 -14 -13 -13 -7 -10 -10 -8 -10 -11 -11 -12
-7 -7 -7 -7 -7 -7 -8 -7 -7 -9 -7 -7 -7 -7 -7 -7 -7 -7 -7 -7 -7 -7 -8 -8 -8 -9 -8 -8 -9 -8 -10 -7 -8 -10 -9 -8 -8 -9 -11 -11 -11 -11 -12 -13
-8 -8 -8 -7 -7 -7 -8 -8 -7 -9 -10 -9 -8 -7 -6 -7 -7 -7 -8 -7 -7 -7 -7 -7 -8 -9 -9 -9 -9 -8 -8 -8 -9 -10 -8 -9 -10 -11 -11 -12 -12 -12 -13 -14
-9 -10 -10 -9 -9 -9 -10 -10 -9 -10 -11 -11 -10 -8 -8 -7 -8 -8 -8 -8 -8 -8 -8 -8 -8 -9 -9 -9 -8 -9 -9 -9 -9 -9 -9 -10 -11 -11 -12 -13 -13 -14 -14 -15
-12 -12 -13 -13 -12 -12 -13 -13 -11 -11 -12 -12 -11 -11 -10 -9 -9 -8 -8 -9 -9 -9 -8 -9 -9 -9 -9 -9 -10 -9 -8 -8 -10 -11 -11 -11 -12 -13 -13 -14 -14 -15 -15 -16
-14 -14 -14 -13 -14 -13 -13 -13 -12 -12 -12 -13 -13 -12 -10 -10 -10 -9 -9 -8 -9 -11 -11 -10 -10 -9 -10 -10 -10 -10 -10 -10 -10 -11 -12 -13 -13 -14 -14 -15 -16 -16 -17 -17
-15 -15 -14 -14 -14 -14 -13 -13 -13 -13 -13 -12 -12 -12 -11 -10 -10 -10 -10 -10 -10 -11 -12 -11 -10 -10 -11 -11 -11 -9 -10 -11 -12 -13 -14 -14 -15 -16 -16 -17 -17 -18 -18 -19
-15 -15 -15 -14 -14 -14 -14 -13 -14 -14 -13 -13 -13 -12 -12 -11 -11 -11 -11 -10 -11 -11 -11 -11 -11 -11 -12 -13 -12 -12 -11 -12 -13 -14 -15 -16 -17 -17 -18 -18 -18 -19 -19 -19
-16 -16 -15 -15 -15 -15 -14 -14 -14 -14 -14 -13 -14 -13 -13 -12 -12 -12 -11 -11 -12 -13 -13 -13 -14 -13 -13 -12 -12 -12 -13 -14 -16 -16 -17 -17 -18 -18 -19 -19 -19 -20 -20 -21
-16 -16 -16 -16 -15 -15 -15 -14 -14 -14 -14 -14 -13 -13 -13 -13 -13 -13 -13 -13 -13 -13 -13 -14 -14 -14 -12 -12 -13 -15 -16 -17 -17 -18 -18 -18 -19 -19 -19 -19 -20 -21 -21 -22
-16 -16 -16 -16 -16 -15 -15 -14 -14 -14 -14 -14 -14 -14 -13 -13 -14 -14 -15 -15 -15 -15 -14 -16 -16 -14 -14 -15 -15 -16 -18 -18 -18 -18 -19 -19 -19 -19 -20 -20 -21 -21 -22 -23
-16 -16 -16 -16 -16 -15 -15 -14 -14 -14 -14 -13 -13 -13 -13 -14 -15 -16 -16 -16 -16 -16 -17 -18 -17 -16 -17 -17 -18 -19 -18 -18 -18 -19 -19 -19 -19 -20 -21 -21 -22 -23 -23 -24
-16 -16 -16 -16 -15 -15 -15 -14 -14 -15 -14 -14 -15 -14 -14 -15 -16 -17 -17 -17 -18 -19 -19 -18 -18 -18 -18 -18 -18 -19 -19 -19 -19 -19 -20 -20 -20 -21 -21 -22 -23 -24 -24 -25
-16 -16 -16 -15 -15 -15 -15 -15 -15 -15 -15 -15 -15 -16 -17 -17 -17 -17 -18 -18 -19 -19 -19 -18 -18 -18 -18 -19 -19 -19 -19 -20 -20 -20 -20 -21 -21 -21 -22 -23 -24 -25 -25 -26
-16 -16 -15 -16 -16 -16 -15 -15 -15 -15 -15 -16 -16 -18 -18 -18 -18 -18 -19 -19 -19 -19 -18 -18 -18 -19 -19 -19 -19 -20 -20 -20 -21 -21 -21 -21 -22 -22 -23 -24 -25 -26 -26 -27
-16 -16 -16 -16 -16 -16 -15 -15 -16 -16 -17 -17 -18 -19 -19 -19 -19 -19 -19 -19 -19 -19 -18 -18 -19 -19 -19 -20 -20 -20 -21 -21 -21 -21 -22 -22 -22 -23 -24 -24 -25 -26 -27 -28
-16 -16 -16 -16 -16 -16 -16 -17 -17 -18 -19 -19 -19 -19 -19 -19 -19 -19 -19 -19 -19 -19 -19 -19 -19 -20 -20 -20 -20 -21 -21 -21 -22 -22 -22 -23 -23 -23 -24 -25 -26 -27 -27 -28